Weather History for Panama City, FL

Change the Weather History Date:

Thursday, December 6, 2012

  Actual Average Record
Temperature  
Mean Temperature 64 °F -  
Max Temperature 77 °F - 80 °F (2013)
Min Temperature 50 °F - 30 °F (2010)
Degree Days  
Heating Degree Days 1    
Cooling Degree Days 0    
Growing Degree Days 13 (Base 50)    
Moisture  
Dew Point 55 °F    
Average Humidity 74    
Maximum Humidity 93    
Minimum Humidity 54    
Precipitation  
Precipitation 0.00 in - 0.26 in (2011)
Month to date precipitation  
Year to date precipitation  
Sea Level Pressure  
Sea Level Pressure 30.05 in    
Wind  
Wind Speed 3 mph (ENE)    
Max Wind Speed 10 mph    
Max Gust Speed 14 mph    
Visibility 10 miles    
Events      
T = Trace of Precipitation, MM = Missing Value Source: NWS Daily Summary

Daily Weather History Graph

Daily Weather History Graph

Search for Another Location

Airport:

Trip Planner

Search our weather history database for the weather conditions in past years. The results will help you decide how hot, cold, wet, or windy it might be!

Date:

Astronomy

Dec. 06, 2012 Rise Set
Actual Time 7:26 AM EST 5:42 PM EST
Civil Twilight 7:00 AM EST 6:08 PM EST
Nautical Twilight 6:30 AM EST 6:38 PM EST
Astronomical Twilight 6:01 AM EST 7:07 PM EST
Moon 12:10 AM EST (12/6) 12:42 PM EST (12/6)
Length of Visible Light 11h 08m
Length of Day
10h 15m
Waning Gibbous, 49% of the Moon is Illuminated
Dec 6
Waning Gibbous
Dec 13
New
Dec 20
First Quarter
Dec 28
Full
Jan 4
Last Quarter

Hourly Weather History & Observations

Time (EST) Temp. Dew Point Humidity Pressure Visibility Wind Dir Wind Speed Gust Speed Precip Events Conditions
12:53 AM 53.1 °F 51.1 °F 93% 30.10 in 10.0 mi Calm Calm - N/A   Clear
1:53 AM 51.1 °F 48.9 °F 92% 30.09 in 10.0 mi Calm Calm - N/A   Clear
2:53 AM 52.0 °F 48.9 °F 89% 30.07 in 10.0 mi NNE 3.5 mph - N/A   Clear
3:53 AM 51.1 °F 48.0 °F 89% 30.06 in 10.0 mi NE 3.5 mph - N/A   Clear
4:53 AM 51.1 °F 48.9 °F 92% 30.06 in 10.0 mi NE 4.6 mph - N/A   Clear
5:53 AM 55.0 °F 51.1 °F 86% 30.06 in 10.0 mi ENE 5.8 mph - N/A   Clear
6:53 AM 55.9 °F 52.0 °F 87% 30.07 in 10.0 mi ENE 5.8 mph - N/A   Clear
7:53 AM 54.0 °F 52.0 °F 93% 30.09 in 8.0 mi Calm Calm - N/A   Clear
8:53 AM 60.1 °F 55.9 °F 86% 30.09 in 10.0 mi NE 5.8 mph - N/A   Clear
9:53 AM 64.9 °F 57.9 °F 78% 30.09 in 10.0 mi ENE 10.4 mph - N/A   Clear
10:53 AM 70.0 °F 57.9 °F 65% 30.10 in 10.0 mi ENE 6.9 mph - N/A   Clear
11:53 AM 73.0 °F 57.9 °F 59% 30.07 in 10.0 mi ENE 4.6 mph - N/A   Partly Cloudy
12:53 PM 73.9 °F 57.0 °F 55% 30.04 in 10.0 mi ENE 6.9 mph - N/A   Partly Cloudy
1:53 PM 75.0 °F 57.0 °F 53% 30.02 in 10.0 mi East 4.6 mph - N/A   Mostly Cloudy
2:53 PM 75.9 °F 57.9 °F 54% 30.01 in 10.0 mi East 4.6 mph - N/A   Mostly Cloudy
3:53 PM 75.0 °F 57.0 °F 53% 30.01 in 10.0 mi SE 4.6 mph - N/A   Scattered Clouds
4:53 PM 73.9 °F 57.9 °F 57% 30.01 in 10.0 mi Calm Calm - N/A   Partly Cloudy
5:53 PM 68.0 °F 61.0 °F 78% 30.01 in 10.0 mi SE 4.6 mph - N/A   Partly Cloudy
6:53 PM 66.0 °F 62.1 °F 87% 30.02 in 10.0 mi Calm Calm - N/A   Overcast
7:53 PM 63.0 °F 60.1 °F 90% 30.03 in 10.0 mi Calm Calm - N/A   Scattered Clouds
8:53 PM 60.1 °F 57.0 °F 90% 30.03 in 10.0 mi Calm Calm - N/A   Clear
9:53 PM 60.1 °F 57.9 °F 93% 30.02 in 7.0 mi NNE 3.5 mph - N/A   Clear
10:53 PM 60.1 °F 57.9 °F 93% 30.03 in 10.0 mi NNE 4.6 mph - N/A   Mostly Cloudy
11:53 PM 61.0 °F 57.0 °F 87% 30.04 in 10.0 mi NE 4.6 mph - N/A   Mostly Cloudy